| time (UTC) | temp F | wind direction | speed knots | gust knots | rain 1hr in | rain 24hr in | rain mn in | humidity % | barometer mb |
| 20260504173349 | 63 | 157 | 0.0 | 0.0 | 0.12 | 0.51 | 0.09 | 91 | 1008.8 |
| 20260504172334 | 63 | 157 | 0.0 | 1.7 | 0.12 | 0.51 | 0.09 | 91 | 1008.7 |
| 20260504170333 | 63 | 157 | 0.0 | 1.7 | 0.16 | 0.47 | 0.08 | 91 | 1008.8 |
| 20260504160338 | 64 | 165 | 1.7 | 4.3 | 0.12 | 0.28 | 0.04 | 91 | 1009.4 |
| 20260504150334 | 64 | 193 | 2.6 | 7.0 | 0.04 | 0.16 | 0.02 | 90 | 1009.5 |
| 20260504140349 | 65 | 242 | 2.6 | 5.2 | 0.00 | 0.08 | 0.00 | 89 | 1010.0 |
| 20260504130342 | 65 | 190 | 0.0 | 6.1 | 0.00 | 0.08 | 0.00 | 88 | 1010.2 |
| 20260504110346 | 67 | 193 | 0.0 | 0.9 | 0.00 | 0.08 | 0.00 | 80 | 1010.6 |
| 20260504100343 | 67 | 140 | 3.5 | 8.7 | 0.00 | 0.08 | 0.00 | 82 | 1010.5 |
| 20260504081335 | 66 | 174 | 2.6 | 5.2 | 0.00 | 0.08 | 0.00 | 76 | 1010.5 |
| 20260504080347 | 66 | 207 | 0.0 | 0.0 | 0.00 | 0.08 | 0.00 | 78 | 1010.5 |
| 20260504050342 | 61 | 311 | 0.0 | 0.0 | 0.00 | 0.08 | 0.00 | 89 | 1011.0 |
| 20260504045350 | 61 | 308 | 0.0 | 0.0 | 0.00 | 0.08 | 0.00 | 89 | 1010.9 |
| 20260504042336 | 61 | 309 | 0.0 | 0.0 | 0.00 | 0.08 | 0.00 | 88 | 1011.1 |
| 20260504041345 | 61 | 309 | 0.0 | 0.0 | 0.00 | 0.08 | 0.00 | 88 | 1011.2 |
| 20260504035340 | 61 | 309 | 0.0 | 0.0 | 0.00 | 0.08 | 0.00 | 89 | 1011.4 |
| 20260504034349 | 61 | 309 | 0.0 | 0.0 | 0.00 | 0.08 | 0.00 | 89 | 1011.5 |
| 20260504033336 | 61 | 309 | 0.0 | 0.0 | 0.00 | 0.08 | 0.00 | 88 | 1011.5 |
| 20260504032345 | 61 | 309 | 0.0 | 0.0 | 0.00 | 0.08 | 0.00 | 88 | 1011.6 |
| 20260504031337 | 61 | 309 | 0.0 | 0.0 | 0.00 | 0.08 | 0.00 | 88 | 1011.4 |
| 20260504030347 | 61 | 309 | 0.0 | 0.0 | 0.00 | 0.08 | 0.00 | 88 | 1011.4 |
| 20260504025331 | 61 | 309 | 0.0 | 0.0 | 0.00 | 0.08 | 0.00 | 88 | 1011.4 |
| 20260504024339 | 61 | 309 | 0.0 | 0.0 | 0.00 | 0.08 | 0.00 | 88 | 1011.4 |
| 20260504023347 | 61 | 308 | 0.0 | 0.0 | 0.00 | 0.08 | 0.00 | 88 | 1011.4 |
| 20260504022331 | 61 | 308 | 0.0 | 0.0 | 0.00 | 0.08 | 0.00 | 89 | 1011.4 |
| 20260504021342 | 61 | 308 | 0.0 | 0.0 | 0.00 | 0.08 | 0.00 | 89 | 1011.4 |
| 20260504020340 | 60 | 308 | 0.0 | 0.0 | 0.00 | 0.08 | 0.00 | 89 | 1011.4 |
| 20260504015347 | 60 | 308 | 0.0 | 0.0 | 0.00 | 0.08 | 0.00 | 89 | 1011.5 |
| 20260504014333 | 60 | 308 | 0.0 | 0.0 | 0.00 | 0.08 | 0.00 | 89 | 1011.6 |
| 20260504013344 | 60 | 308 | 0.0 | 0.0 | 0.00 | 0.08 | 0.00 | 89 | 1011.6 |
| 20260504012332 | 60 | 309 | 0.0 | 0.0 | 0.00 | 0.08 | 0.00 | 89 | 1011.9 |
| 20260504005341 | 60 | 312 | 0.0 | 0.0 | 0.00 | 0.08 | 0.00 | 90 | 1012.0 |
| 20260504004349 | 60 | 313 | 0.0 | 0.0 | 0.00 | 0.08 | 0.00 | 90 | 1012.1 |
| 20260504003333 | 60 | 312 | 0.0 | 0.0 | 0.00 | 0.08 | 0.00 | 89 | 1012.1 |
| 20260504002342 | 60 | 312 | 0.0 | 0.0 | 0.00 | 0.08 | 0.00 | 90 | 1012.1 |
| 20260504001331 | 60 | 316 | 0.0 | 0.0 | 0.00 | 0.08 | 0.00 | 90 | 1012.2 |
| 20260503235349 | 60 | 318 | 0.0 | 0.0 | 0.00 | 0.08 | 0.00 | 89 | 1012.4 |
| 20260503234335 | 61 | 36 | 0.0 | 0.0 | 0.00 | 0.08 | 0.00 | 90 | 1012.4 |
| 20260503233343 | 61 | 39 | 0.0 | 0.0 | 0.00 | 0.08 | 0.00 | 90 | 1012.4 |
| 20260503232333 | 61 | 44 | 0.0 | 0.0 | 0.00 | 0.08 | 0.00 | 90 | 1012.5 |
| 20260503231341 | 61 | 44 | 0.0 | 0.0 | 0.00 | 0.08 | 0.00 | 91 | 1012.5 |
| 20260503230350 | 61 | 44 | 0.0 | 0.0 | 0.00 | 0.08 | 0.00 | 91 | 1012.5 |
| 20260503225337 | 61 | 45 | 0.0 | 0.0 | 0.00 | 0.08 | 0.00 | 91 | 1012.7 |
| 20260503224346 | 61 | 46 | 0.0 | 0.0 | 0.00 | 0.08 | 0.00 | 91 | 1012.7 |
| 20260503223331 | 61 | 46 | 0.0 | 0.0 | 0.00 | 0.08 | 0.00 | 91 | 1012.7 |
| 20260503222339 | 62 | 46 | 0.0 | 0.0 | 0.00 | 0.08 | 0.00 | 91 | 1012.6 |
| 20260503220338 | 62 | 49 | 0.0 | 0.0 | 0.00 | 0.08 | 0.00 | 91 | 1012.6 |
| 20260503214335 | 62 | 51 | 0.0 | 0.0 | 0.00 | 0.08 | 0.02 | 92 | 1013.0 |
| 20260503212338 | 61 | 52 | 0.0 | 0.0 | 0.00 | 0.08 | 0.02 | 91 | 1013.0 |
| 20260503211347 | 61 | 53 | 0.0 | 0.0 | 0.04 | 0.08 | 0.02 | 91 | 1013.0 |
| 20260503210331 | 61 | 52 | 0.0 | 0.0 | 0.04 | 0.08 | 0.02 | 91 | 1013.0 |
| 20260503205340 | 61 | 96 | 0.0 | 0.0 | 0.04 | 0.08 | 0.02 | 91 | 1013.2 |
| 20260503204350 | 61 | 97 | 0.0 | 0.0 | 0.04 | 0.08 | 0.02 | 91 | 1013.2 |
| 20260503203334 | 61 | 97 | 0.0 | 0.0 | 0.08 | 0.08 | 0.02 | 91 | 1013.2 |
| 20260503202347 | 62 | 102 | 0.0 | 0.0 | 0.08 | 0.08 | 0.02 | 90 | 1013.0 |
| 20260503200349 | 62 | 94 | 0.0 | 0.0 | 0.04 | 0.04 | 0.01 | 90 | 1013.0 |
| 20260503194344 | 62 | 75 | 0.0 | 0.0 | 0.04 | 0.04 | 0.01 | 87 | 1012.5 |
| 20260503193350 | 62 | 59 | 0.0 | 0.0 | 0.00 | 0.00 | 0.00 | 86 | 1012.5 |
| 20260503192342 | 63 | 34 | 0.0 | 0.0 | 0.00 | 0.00 | 0.00 | 84 | 1012.8 |
| 20260503191350 | 63 | 18 | 0.0 | 0.0 | 0.00 | 0.00 | 0.00 | 83 | 1012.7 |
| 20260503190337 | 63 | 19 | 0.0 | 0.0 | 0.00 | 0.00 | 0.00 | 83 | 1012.7 |
| 20260503184336 | 63 | 22 | 0.0 | 0.0 | 0.00 | 0.00 | 0.00 | 82 | 1012.5 |
| 20260503183346 | 63 | 22 | 0.0 | 0.0 | 0.00 | 0.00 | 0.00 | 82 | 1012.5 |
| 20260503182337 | 63 | 22 | 0.0 | 0.0 | 0.00 | 0.00 | 0.00 | 82 | 1012.5 |
| 20260503181345 | 63 | 5 | 0.0 | 0.0 | 0.00 | 0.00 | 0.00 | 82 | 1012.5 |
| 20260503180351 | 63 | 23 | 0.0 | 0.0 | 0.00 | 0.00 | 0.00 | 83 | 1012.5 |
| 20260503175336 | 63 | 23 | 0.0 | 0.0 | 0.00 | 0.00 | 0.00 | 83 | 1012.4 |
| 20260503174345 | 62 | 9 | 0.0 | 0.0 | 0.00 | 0.00 | 0.00 | 84 | 1012.4 |